Zurück zum Katalog

HISPASAT 30W-6

AktivKommunikationGEO
NORAD 43228·PAYLOAD·🇪🇸 Spain

Gestartet Mar 6, 2018 von Cape Canaveral Space Force Station

Loading…

TLE

AktuellSource: Space-Track

Epoche: Sep 14, 2026, 22:12 UTC

1 43228U 18023A   26257.92555410 -.00000223  00000-0  00000-0 0  9994
2 43228   0.0476  41.4926 0003401  97.6912 157.9095  1.00270348 31304

Verfolge HISPASAT 30W-6 in Echtzeit mit AllMySat

Download on the App Store